Torna al catalogo

DIRECTV 14

AttivoComunicazioniGEO
NORAD 40333·PAYLOAD·🇺🇸 United States

Lanciato Dec 6, 2014 da Guiana Space Centre

Loading…

TLE

AggiornatoSource: Space-Track

Epoca: Sep 14, 2026, 15:28 UTC

1 40333U 14078B   26257.64454825 -.00000133  00000-0  00000-0 0  9991
2 40333   0.0146  86.7277 0000721 349.2822  50.4042  1.00271254 42949

Traccia DIRECTV 14 in tempo reale con AllMySat

Download on the App Store